ZHONGXING-4A

Last updated on Wed Sep 09 2026 00:03:04 GMT+0000 (Coordinated Universal Time)

1 60606U 24151A 26251.51086421 -.00000385 00000+0 00000+0 0 9999 2 60606 1.1054 270.0636 0001129 7.6962 11.9517 1.00269843 7596
UTC large
Height (km)
Speed (km/s)
/
Latitude / Longitude
Inclination (degrees)
Orbital Period (minutes)
Azimuth
Elevation
Range (km)
Doppler Factor

Next 0 passes for location: London (51.5072 / 0.1276)

No passes found over London.
ZHONGXING-4A